Home   Weather   Montevideo   Past weeks

Flag for Uruguay Past Weather in Montevideo, Uruguay — Yesterday and Last 2 Weeks

54 °F


Feels Like: 47 °F
Forecast: 54 / 58 °F
Wind: 28 mph from Southwest

Location: Carrasco

Current Time: Oct 27, 2016 at 4:00:12 AM

Latest Report: Oct 27, 2016 at 3:00 AM

Visibility: N/A

Pressure: 29.68 "Hg

Humidity: 77%

Dew Point: 46 °F

Location of MontevideoLocation

Past Weather in Montevideo — Graph


Montevideo Temperature Yesterday

Maximum temperature yesterday: 68 °F (at 12:00 PM)
Minimum temperature yesterday: 57 °F (at 10:00 PM)
Average temperature yesterday: 62 °F

High & Low Weather Summary for the Past Weeks

High81 °F (Oct 12, 5:00 PM)100% (Oct 13, 5:00 AM)30.18 "Hg (Oct 13, 5:00 AM)
Low46 °F (Oct 22, 2:00 AM)48% (Oct 12, 5:00 PM)29.59 "Hg (Oct 16, 2:00 PM)
Average61 °F85%29.95 "Hg
* Reported Oct 12 3:00 AM — Oct 27 3:00 AM, Montevideo, Weather by CustomWeather, © 2016

Note: Actual official high and low records may vary slightly from our data, if they occured in-between our weather recording intervals... More about our weather records


Montevideo Weather History for the Previous 24 Hours

Scroll right to see more
Time TempWeatherWind HumidityBarometerVisibility
3:00 AM
Thu, Oct 27
54 °FOvercast.28 mph77%29.68 "HgN/A
2:00 AM55 °FOvercast.28 mph67%29.71 "HgN/A
1:00 AM55 °FPassing clouds.18 mph67%29.74 "HgN/A
12:00 AM55 °FPassing clouds.29 mph63%29.77 "HgN/A
11:00 PM
Wed, Oct 26
57 °FPassing clouds.30 mph63%29.77 "HgN/A
10:00 PM57 °FDrizzle. Overcast.32 mph82%29.74 "Hg3 mi
9:00 PM59 °FDrizzle. Overcast.30 mph88%29.74 "Hg2 mi
8:00 PM61 °FMostly cloudy.35 mph83%29.71 "HgN/A
7:00 PM61 °FMore clouds than sun.23 mph88%29.68 "HgN/A
6:00 PM64 °FMore clouds than sun.17 mph88%29.65 "HgN/A
5:00 PM66 °FOvercast.15 mph88%29.65 "HgN/A
4:00 PM66 °FBroken clouds.14 mph88%29.65 "HgN/A
3:00 PM68 °FBroken clouds.17 mph83%29.68 "HgN/A
2:00 PM66 °FMore clouds than sun.6 mph88%29.68 "HgN/A
1:00 PM64 °FOvercast.5 mph94%29.71 "HgN/A
12:00 PM68 °FMostly cloudy.3 mph88%29.74 "HgN/A
11:00 AM64 °FLow clouds.5 mph94%29.77 "Hg5 mi
10:00 AM61 °FDrizzle. Fog.2 mph100%29.80 "Hg1 mi
9:00 AM61 °FDrizzle. Fog.6 mph100%29.80 "Hg1 mi
8:00 AM61 °FFog.7 mph100%29.80 "Hg2 mi
7:00 AM59 °FFog.7 mph100%29.80 "Hg1 mi
6:00 AM59 °FFog.9 mph100%29.83 "Hg1 mi
5:00 AM59 °FDrizzle. Fog.8 mph100%29.83 "Hg3 mi
4:00 AM59 °FLow clouds.9 mph100%29.86 "Hg6 mi
Weather by CustomWeather, © 2016

See weather overviewHow to use our weather pages